Location: Nied?wied?
(53.3665°N, 14.8184°E)
Time: 17:45:27
(UTC+00:00)

ISS - Pass Details

Date: 15 May 2021
Orbit: 417 x 422 km, 51.6° (Epoch: 14 June)

Event Time Altitude Azimuth Distance (km) Brightness Sun altitude
Rises 00:02:08 0° 273° (W) 2,372 -0.1 -16.4°
Reaches altitude 10° 00:04:15 10° 270° (W) 1,508 -1.1 -16.3°
Maximum altitude 00:07:35 58° 190° (S) 498 -3.8 -16.2°
Drops below altitude 10° 00:10:55 10° 111° (ESE) 1,508 -1.0 -16.0°
Sets 00:13:02 0° 107° (ESE) 2,372 0.1 -15.9°
